Regional Weather Roundup
Issued by NWS Midland/Odessa, TX

Skip options and go directly to product.
Home | Oldest Version | Previous Version | Current Version | All | Text Only | Save Text | Print | Product List | Glossary On

Skip product version selection by date and time.   
973
ASUS44 KMAF 291410
RWRMAF
MIDLAND AREA WEATHER ROUNDUP
NATIONAL WEATHER SERVICE MIDLAND TX
900 AM CDT FRI MAY 29 2015

...IN SOUTHWEST TEXAS AND SOUTHEAST NEW MEXICO...

CITY           SKY/WX    TMP DP  RH WIND       PRES   REMARKS
ALPINE         SUNNY     73  58  60 SW10      30.12R
ANDREWS        FAIR      63  58  83 E10       30.02S
ARTESIA        SUNNY     64  55  72 NW10      30.07R
BIG SPRING     MOSUNNY   65  60  83 E3        30.04R
CARLSBAD       MOSUNNY   64  55  72 NW9       30.03R
DRYDEN           N/A     67  63  87 W6        29.97R
FORT STOCKTON  SUNNY     66  59  78 MISG      29.99R
GUAD PASS      SUNNY     67  32  27 S6        30.11R
HOBBS          SUNNY     63  57  82 N9        30.05R
MARFA          SUNNY     66  57  72 CALM      30.12S
MIDLAND AIRPK  SUNNY     66  59  78 NE7       30.02R
MIDLAND INTL   SUNNY     65  58  78 E7        30.01R
ODESSA         SUNNY     66  58  75 E10       30.01R
PECOS          SUNNY     62  57  82 CALM      29.99R
PRESIDIO       FAIR      78  59  51 E8        29.99S
SEMINOLE       SUNNY     63  57  82 E8        30.04R
SNYDER         CLOUDY    63  60  89 W5        30.01R
WINK           SUNNY     67  56  67 E7        29.98R
$$
...OTHER STATIONS IN TEXAS...

CITY           SKY/WX    TMP DP  RH WIND       PRES   REMARKS
ABILENE        CLOUDY    65  60  84 E5        29.98S
AMARILLO       MOSUNNY   60  55  83 NW12      30.06R
AUSTIN         CLOUDY    69  66  90 NW5       29.94R
BROWNSVILLE    PTSUNNY   82  77  84 SE6       29.98R THUNDER
CORPUS CHRISTI LGT RAIN  69  65  86 E21       29.95F
DALLAS FTW     DRIZZLE   68  66  93 W9        29.91R
DEL RIO        CLOUDY    69  63  81 SE8       29.98R
EL PASO        SUNNY     71  26  18 CALM      30.03R
HOUSTON INT    CLOUDY    72  69  90 S7        29.95S
LUBBOCK        FOG       58  57  97 NW5       30.03R VSB 3/4
SAN ANGELO     PTSUNNY   66  61  84 CALM      30.00R
SAN ANTONIO    PTSUNNY   70  63  78 NW10      29.97R
WACO           PTSUNNY   68  65  90 W10       29.95R
WICHITA FALLS  NOT AVBL
$$
...OTHER LOCATIONS IN NEW MEXICO...

CITY           SKY/WX    TMP DP  RH WIND       PRES   REMARKS
ALAMAGORDO     SUNNY     66  23  19 SW3       30.05R
ALBUQUERQUE    PTSUNNY   63  37  38 N7        30.16R
CANNON AFB     SUNNY     62  52  67 NW2       30.09R
CLOVIS         SUNNY     61  50  67 N10       30.07R
HOLLOMAN AFB   SUNNY     64  24  22 CALM      30.03R
ROSWELL        SUNNY     63  54  72 NE6       30.06R
RUIDOSO        SUNNY     64  28  25 NW3       30.23R
SANTA FE       SUNNY     58  35  42 N17G23    30.19R
TRUTH OR CONSE PTSUNNY   70  24  17 NE3       30.12R
TUCUMCARI      SUNNY     63  52  67 CALM      30.09R
$$

USA.gov is the U.S. government's official web portal to all federal, state and local government web resources and services.